Regional Weather Roundup
Issued by NWS

Home | Current Version | Previous Version | Graphics & Text | Print | Product List | Glossary On
Versions: 1 2 3 4 5 6 7 8 9 10 11 12 13 14 15 16 17 18 19 20 21 22 23 24 25 26 27 28 29 30 31 32 33 34 35 36 37 38 39 40 41 42 43 44 45 46 47 48 49 50
227
ASUS45 KCYS 291410
RWRWY

WYOMING REGIONAL WEATHER ROUNDUP
NATIONAL WEATHER SERVICE CHEYENNE WY
800 AM MDT SAT APR 29 2017

NOTE:  "FAIR" INDICATES FEW OR NO CLOUDS BELOW 12,000 FEET
WITH NO SIGNIFICANT WEATHER AND/OR OBSTRUCTIONS TO VISIBILITY.

WYZ001-291500-
YELLOWSTONE NATIONAL PARK

CITY           SKY/WX    TMP DP  RH WIND       PRES   REMARKS
LK YELLOWSTONE   N/A     20  16  84 CALM      30.21S
W YELLOWSTONE  NOT AVBL

$$
WYZ002>013-054>058-071-098>099-291500-
NORTHERN WYOMING

CITY           SKY/WX    TMP DP  RH WIND       PRES   REMARKS
JACKSON        SUNNY     30  23  74 N12       30.20R WCI  21
CODY           CLOUDY    34  29  82 S3        30.25R
GREYBULL       FAIR      35  31  85 SE3       30.26R
WORLAND        FAIR      34  33  96 SE3       30.26R
SHERIDAN       FAIR      29  24  82 CALM      30.25R
BUFFALO        FAIR      29  16  58 SW7       30.25R WCI  22
GILLETTE       FAIR      23  22  96 S8        30.27R WCI  14
HULETT         FAIR      34  28  80 CALM      30.29R
NEWCASTLE      FAIR      32  27  80 CALM      30.28R

$$
WYZ014>020-022>026-101>103-291500-
CENTRAL WYOMING

CITY           SKY/WX    TMP DP  RH WIND       PRES   REMARKS
BIG PINEY      FAIR      25  21  85 W8        30.20R WCI  16
PINEDALE       FAIR      25  19  80 W8        30.21R WCI  16
DUBOIS         CLOUDY    25  21  86 CALM      30.20R
LANDER         CLOUDY    28  25  88 SE5       30.23R WCI  23
RIVERTON       FAIR      27  26  96 NW7       30.24R WCI  19
CASPER         CLOUDY    27  25  92 CALM      30.25R
DOUGLAS        PTSUNNY   23  23 100 CALM      30.27R FOG

$$
WYZ021-027>030-104>119-291500-
SOUTHERN WYOMING

CITY           SKY/WX    TMP DP  RH WIND       PRES   REMARKS
EVANSTON       FAIR      26  19  74 NE6       30.18R WCI  19
FORT BRIDGER   FAIR      25  21  86 N6        30.22R WCI  18
ROCK SPRINGS   CLOUDY    28  20  71 NE16      30.18R WCI  16
DIXON            N/A     34  18  52 E17       30.09R WCI  23
RAWLINS        FLURRIES  26  19  74 NE17      30.16R WCI  13
SARATOGA       CLOUDY    28  21  74 NE14      30.14R WCI  17
LARAMIE        LGT SNOW  23  19  85 E12       30.16R FOG     WCI  12
CHEYENNE       LGT SNOW  26  24  92 N10       30.19R FOG     WCI  16
TORRINGTON     CLOUDY    31  26  82 NE10      30.26R WCI  22
PINE BLUFFS    CLOUDY    30  28  93 N7        30.22R WCI  23

$$




USA.gov is the U.S. government's official web portal to all federal, state and local government web resources and services.